DLH27A XXXX-EDDF

Flight info

Callsign DLH27A
Flight time N/A
Altitude
Route SPESA
Aircraft A319

Departure

Time N/A
Airport XXXX

Arrival

Time 2026-05-04 13:39
Airport Frankfurt Main Airport (EDDF)
Time Latitude Longitude Altitude Speed Heading
2026-05-04 13:30 50.17261 9.11336 5652 ft 240 kts 296°
2026-05-04 13:31 50.17658 9.08855 5073 ft 234 kts 268°
2026-05-04 13:31 50.17257 9.06459 4499 ft 233 kts 241°
2026-05-04 13:31 50.16132 9.04690 4107 ft 227 kts 210°
2026-05-04 13:31 50.14647 9.03756 3992 ft 235 kts 207°
2026-05-04 13:32 50.13325 9.02289 3990 ft 236 kts 228°
2026-05-04 13:32 50.12564 9.00107 3993 ft 232 kts 253°
2026-05-04 13:32 50.12295 8.97602 3997 ft 235 kts 264°
2026-05-04 13:32 50.12198 8.95108 3990 ft 222 kts 266°
2026-05-04 13:33 50.12002 8.92828 3992 ft 203 kts 255°
2026-05-04 13:33 50.11593 8.90824 3990 ft 189 kts 251°
2026-05-04 13:33 50.11167 8.88946 3995 ft 176 kts 250°
2026-05-04 13:33 50.10773 8.87195 3851 ft 167 kts 251°
2026-05-04 13:34 50.10420 8.85536 3826 ft 163 kts 251°
2026-05-04 13:34 50.10011 8.83781 3740 ft 174 kts 249°
2026-05-04 13:34 50.09592 8.82041 3498 ft 169 kts 250°
2026-05-04 13:34 50.09187 8.80327 3285 ft 168 kts 249°
2026-05-04 13:35 50.08785 8.78657 3065 ft 165 kts 249°
2026-05-04 13:35 50.07982 8.75290 2603 ft 163 kts 249°
2026-05-04 13:35 50.07596 8.73675 2412 ft 156 kts 250°
2026-05-04 13:36 50.07234 8.72149 2201 ft 143 kts 249°
2026-05-04 13:36 50.06894 8.70736 2019 ft 140 kts 249°
2026-05-04 13:36 50.06559 8.69304 1898 ft 139 kts 249°
2026-05-04 13:36 50.06226 8.67869 1846 ft 146 kts 249°
2026-05-04 13:37 50.05859 8.66400 1629 ft 140 kts 246°
2026-05-04 13:37 50.05510 8.65047 1423 ft 128 kts 249°
2026-05-04 13:37 50.05220 8.63749 1164 ft 128 kts 250°
2026-05-04 13:37 50.04904 8.62415 990 ft 135 kts 249°
2026-05-04 13:38 50.04584 8.61064 749 ft 131 kts 249°
2026-05-04 13:38 50.04266 8.59744 566 ft 132 kts 248°
2026-05-04 13:38 50.03950 8.58409 395 ft 128 kts 246°
2026-05-04 13:38 50.03678 8.57299 371 ft 85 kts 249°
2026-05-04 13:39 50.03534 8.56690 370 ft 51 kts 250°
2026-05-04 13:39 50.03428 8.56111 365 ft 42 kts 278°
2026-05-04 13:39 50.03471 8.55757 362 ft 17 kts 280°
2026-05-04 13:39 50.03474 8.55733 364 ft 0 kts 280°
2026-05-04 13:40 50.03476 8.55717 361 ft 11 kts 280°
2026-05-04 13:40 50.03496 8.55562 364 ft 1 kts 295°
2026-05-04 13:41 50.03513 8.55564 359 ft 2 kts
2026-05-04 13:41 50.03526 8.55596 365 ft 5 kts 57°
2026-05-04 13:41 50.03548 8.55684 365 ft 12 kts 73°
2026-05-04 13:42 50.03634 8.56070 367 ft 25 kts 70°
2026-05-04 13:42 50.03705 8.56365 367 ft 32 kts 70°
2026-05-04 13:42 50.03791 8.56723 368 ft 38 kts 69°
2026-05-04 13:42 50.03890 8.57139 370 ft 43 kts 69°
2026-05-04 13:43 50.03999 8.57590 371 ft 47 kts 69°
2026-05-04 13:43 50.04117 8.58081 375 ft 50 kts 69°
2026-05-04 13:43 50.04241 8.58598 379 ft 52 kts 70°
2026-05-04 13:43 50.04369 8.59131 382 ft 51 kts 69°
2026-05-04 13:44 50.04430 8.59420 382 ft 14 kts 89°
2026-05-04 13:44 50.04366 8.59484 382 ft 13 kts 174°
2026-05-04 13:44 50.04266 8.59484 381 ft 16 kts 180°
2026-05-04 13:44 50.04144 8.59458 379 ft 20 kts 194°
2026-05-04 13:45 50.04022 8.59374 380 ft 18 kts 214°
2026-05-04 13:45 50.03945 8.59212 379 ft 18 kts 244°
2026-05-04 13:45 50.03903 8.59053 379 ft 17 kts 249°
2026-05-04 13:45 50.03859 8.58864 376 ft 21 kts 252°
2026-05-04 13:46 50.03794 8.58741 376 ft 11 kts 188°
2026-05-04 13:46 50.03751 8.58806 378 ft 10 kts 116°
2026-05-04 13:46 50.03693 8.58881 378 ft 12 kts 156°
2026-05-04 13:46 50.03598 8.58935 373 ft 17 kts 162°
2026-05-04 13:47 50.03519 8.58912 371 ft 6 kts 242°
2026-05-04 13:47 50.03533 8.58840 371 ft 8 kts 294°
2026-05-04 13:47 50.03542 8.58809 371 ft 0 kts 295°
2026-05-04 13:48 50.03542 8.58810 371 ft 0 kts 295°